contact:dominique.lefevre@mio.osupytheas.fr, maurice.libes@osupytheas.fr, didier.mallarino@osupytheas.fr
Project:EMSO http://www.emso-fr.org/EMSO-France
Depth: 2436.0 m
Title:EMSO Ligure Ouest : Data MII capteur AQUADOPP
Date,Latitude,Longitude,X_East,Y_North,Z_Up,Amplitude_X,Amplitude_Y,Amplitude_Z,Batterie,SoundSpeed,Heading,Pitch,Roll,Pressure,TIS,Speed,Direction
, degrees North, degrees East, m.s-1, m.s-1,m.s-1, 1, 1, 1, Volt, m.s-1, degree, degree, degree, dbar, degree_C, m.s-1, degree
2019-11-13T00:04:08,42.805,6.029,0.031,0.021,-0.046,100.0,110.0,97.0,13.3,1505.3,326.5,-0.7,1.8,2469.967,13.32,0.037,55.9
2019-11-13T00:07:11,42.805,6.029,0.03,0.029,-0.005,99.0,108.0,98.0,13.4,1505.3,327.2,-0.7,1.8,2469.928,13.32,0.041,46.0
2019-11-13T00:10:14,42.805,6.029,0.036,0.026,-0.05,100.0,108.0,98.0,13.4,1505.3,324.6,-0.7,1.8,2469.974,13.32,0.044,54.2
2019-11-13T00:13:17,42.805,6.029,0.037,0.014,-0.047,98.0,109.0,98.0,13.4,1505.3,324.6,-0.7,1.8,2469.955,13.32,0.039,69.3
2019-11-13T00:16:20,42.805,6.029,0.054,0.022,-0.054,101.0,108.0,98.0,13.3,1505.3,327.6,-0.7,1.9,2469.947,13.32,0.058,67.8
2019-11-13T00:19:23,42.805,6.029,0.047,0.016,-0.026,100.0,108.0,98.0,13.4,1505.3,328.5,-0.7,1.8,2469.938,13.32,0.049,71.2
2019-11-13T00:22:26,42.805,6.029,0.04,0.038,-0.039,100.0,107.0,98.0,13.4,1505.3,324.7,-0.7,1.9,2469.938,13.32,0.055,46.5
2019-11-13T00:25:29,42.805,6.029,0.024,0.028,-0.044,100.0,107.0,97.0,13.4,1505.3,326.9,-0.7,1.8,2469.921,13.32,0.036,40.6
2019-11-13T00:28:32,42.805,6.029,0.033,0.022,-0.048,99.0,108.0,98.0,13.4,1505.3,326.0,-0.7,1.9,2469.901,13.32,0.039,56.3
2019-11-13T00:31:35,42.805,6.029,0.05,0.015,-0.041,99.0,109.0,98.0,13.3,1505.3,324.7,-0.7,1.8,2469.918,13.32,0.052,73.3
2019-11-13T00:34:38,42.805,6.029,0.031,0.002,-0.049,99.0,110.0,98.0,13.4,1505.3,325.9,-0.7,1.8,2469.977,13.32,0.031,86.3
2019-11-13T00:37:41,42.805,6.029,0.015,0.003,-0.09,100.0,108.0,98.0,13.4,1505.3,328.1,-0.7,1.8,2469.909,13.32,0.015,78.7
2019-11-13T00:40:44,42.805,6.029,0.054,0.03,-0.034,100.0,108.0,98.0,13.4,1505.3,323.6,-0.7,1.8,2469.91,13.32,0.061,60.9
2019-11-13T00:43:47,42.805,6.029,0.067,0.037,0.006,99.0,108.0,98.0,13.4,1505.3,327.0,-0.7,1.8,2469.944,13.32,0.076,61.1
2019-11-13T00:46:50,42.805,6.029,0.033,0.018,-0.047,99.0,107.0,98.0,13.4,1505.3,324.5,-0.7,1.9,2469.916,13.32,0.037,61.4
2019-11-13T00:49:53,42.805,6.029,0.027,0.026,-0.063,100.0,107.0,99.0,13.4,1505.3,324.9,-0.7,1.9,2469.913,13.32,0.037,46.1
2019-11-13T00:52:56,42.805,6.029,0.041,0.023,-0.05,100.0,107.0,99.0,13.3,1505.3,327.8,-0.7,1.8,2469.894,13.32,0.047,60.7
2019-11-13T00:55:59,42.805,6.029,0.025,0.015,-0.067,102.0,106.0,99.0,13.4,1505.3,328.0,-0.8,1.8,2469.9,13.32,0.029,59.0
2019-11-13T00:59:02,42.805,6.029,0.047,0.02,-0.066,100.0,108.0,98.0,13.4,1505.3,325.4,-0.7,1.8,2469.929,13.32,0.051,67.0
2019-11-13T01:04:08,42.805,6.029,0.027,-0.001,-0.046,102.0,110.0,98.0,13.3,1505.3,324.9,-0.8,1.8,2469.937,13.31,0.027,92.1
2019-11-13T01:07:11,42.805,6.029,0.038,0.017,-0.056,100.0,109.0,98.0,13.4,1505.3,324.7,-0.7,1.9,2469.921,13.31,0.041,65.9
2019-11-13T01:10:14,42.805,6.029,0.057,0.024,-0.02,99.0,105.0,98.0,13.4,1505.3,327.5,-0.7,1.8,2469.948,13.32,0.061,67.2
2019-11-13T01:13:17,42.805,6.029,0.045,0.018,-0.043,100.0,106.0,99.0,13.4,1505.3,327.8,-0.7,1.8,2469.921,13.32,0.048,68.2
2019-11-13T01:16:20,42.805,6.029,0.027,0.003,-0.018,98.0,106.0,99.0,13.4,1505.3,323.8,-0.8,1.8,2469.937,13.32,0.027,83.7
2019-11-13T01:19:23,42.805,6.029,0.057,0.008,-0.016,101.0,106.0,98.0,13.4,1505.3,323.1,-0.7,1.8,2469.93,13.32,0.057,82.0
2019-11-13T01:22:26,42.805,6.029,0.051,0.0,-0.058,99.0,107.0,98.0,13.3,1505.3,324.9,-0.7,1.8,2469.927,13.32,0.051,90.0
2019-11-13T01:25:29,42.805,6.029,0.057,0.023,-0.002,101.0,105.0,98.0,13.4,1505.3,323.3,-0.7,1.8,2469.904,13.32,0.061,68.0
2019-11-13T01:28:32,42.805,6.029,0.056,0.019,-0.021,100.0,105.0,98.0,13.4,1505.3,327.4,-0.7,1.8,2469.872,13.32,0.059,71.3
2019-11-13T01:31:35,42.805,6.029,0.043,0.013,-0.044,100.0,106.0,98.0,13.4,1505.3,327.4,-0.7,1.8,2469.91,13.32,0.044,73.2
2019-11-13T01:34:38,42.805,6.029,0.063,0.014,-0.034,101.0,105.0,97.0,13.4,1505.3,325.8,-0.7,1.8,2469.909,13.32,0.064,77.5
2019-11-13T01:37:41,42.805,6.029,0.048,0.039,-0.057,100.0,107.0,99.0,13.4,1505.3,323.3,-0.7,1.8,2469.923,13.32,0.061,50.9
2019-11-13T01:40:44,42.805,6.029,0.068,0.015,-0.003,101.0,106.0,97.0,13.4,1505.3,326.6,-0.7,1.9,2469.919,13.32,0.069,77.6
2019-11-13T01:43:47,42.805,6.029,0.044,0.007,-0.014,100.0,105.0,98.0,13.4,1505.3,328.2,-0.7,1.8,2469.912,13.32,0.044,81.0
2019-11-13T01:46:50,42.805,6.029,0.051,0.017,-0.038,100.0,105.0,98.0,13.4,1505.3,324.6,-0.7,1.8,2469.948,13.32,0.053,71.6
2019-11-13T01:49:53,42.805,6.029,0.055,0.009,-0.024,100.0,105.0,98.0,13.4,1505.3,324.6,-0.7,1.8,2469.948,13.32,0.055,80.7
2019-11-13T01:52:56,42.805,6.029,0.059,0.004,-0.021,100.0,106.0,98.0,13.4,1505.3,328.3,-0.7,1.8,2469.951,13.32,0.059,86.1
2019-11-13T01:55:59,42.805,6.029,0.054,0.006,-0.003,101.0,104.0,98.0,13.4,1505.3,326.6,-0.7,1.8,2469.907,13.32,0.054,83.7
2019-11-13T01:59:02,42.805,6.029,0.037,0.022,-0.027,99.0,104.0,98.0,13.4,1505.3,323.9,-0.7,1.8,2469.896,13.32,0.043,59.3
2019-11-13T02:09:08,42.805,6.029,0.05,0.014,-0.065,100.0,106.0,97.0,13.4,1505.2,323.3,-0.8,1.8,2470.018,13.29,0.051,74.4
2019-11-13T02:12:11,42.805,6.029,0.074,0.003,-0.009,100.0,104.0,98.0,13.3,1505.2,326.1,-0.7,1.9,2470.004,13.3,0.074,87.7
2019-11-13T02:15:14,42.805,6.029,0.089,-0.013,-0.021,100.0,104.0,98.0,13.4,1505.3,328.5,-0.7,1.8,2469.96,13.31,0.089,98.3
2019-11-13T02:18:17,42.805,6.029,0.045,0.011,-0.041,99.0,104.0,98.0,13.4,1505.3,323.4,-0.8,1.8,2469.982,13.31,0.046,76.3
2019-11-13T02:21:20,42.805,6.029,0.04,0.02,-0.006,100.0,104.0,98.0,13.3,1505.3,324.3,-0.7,1.8,2469.969,13.32,0.044,63.4
2019-11-13T02:24:23,42.805,6.029,0.053,0.023,-0.007,100.0,104.0,98.0,13.3,1505.3,323.1,-0.7,1.8,2469.94,13.32,0.057,66.5
2019-11-13T02:27:26,42.805,6.029,0.068,-0.005,-0.032,100.0,104.0,98.0,13.4,1505.3,325.7,-0.7,1.8,2469.951,13.32,0.068,94.2
2019-11-13T02:30:29,42.805,6.029,0.071,0.009,0.002,99.0,104.0,98.0,13.4,1505.3,323.1,-0.7,1.8,2469.965,13.32,0.071,82.8
2019-11-13T02:33:32,42.805,6.029,0.054,0.003,-0.034,101.0,101.0,97.0,13.4,1505.3,328.4,-0.7,1.9,2469.907,13.32,0.054,86.8
2019-11-13T02:36:35,42.805,6.029,0.034,0.004,-0.03,99.0,105.0,98.0,13.3,1505.3,327.9,-0.7,1.8,2469.916,13.32,0.034,83.3
2019-11-13T02:39:38,42.805,6.029,0.072,0.006,-0.026,98.0,104.0,99.0,13.3,1505.3,328.2,-0.7,1.8,2469.924,13.32,0.072,85.2
2019-11-13T02:42:41,42.805,6.029,0.048,0.024,-0.031,100.0,104.0,98.0,13.3,1505.3,325.5,-0.7,1.8,2469.925,13.32,0.053,63.4
2019-11-13T02:45:44,42.805,6.029,0.048,0.028,0.0,98.0,104.0,98.0,13.3,1505.3,324.9,-0.7,1.8,2469.985,13.32,0.055,59.7
2019-11-13T02:48:47,42.805,6.029,0.059,0.019,-0.017,100.0,104.0,98.0,13.4,1505.3,323.9,-0.7,1.8,2469.949,13.32,0.061,72.2
2019-11-13T02:51:50,42.805,6.029,0.057,0.013,-0.019,100.0,104.0,98.0,13.4,1505.3,323.7,-0.7,1.8,2469.933,13.32,0.058,77.2
2019-11-13T02:54:53,42.805,6.029,0.058,0.009,-0.007,98.0,105.0,99.0,13.3,1505.3,324.6,-0.7,1.8,2469.943,13.32,0.058,81.2
2019-11-13T02:57:56,42.805,6.029,0.056,-0.01,-0.016,97.0,104.0,99.0,13.4,1505.3,327.2,-0.7,1.8,2469.953,13.32,0.056,100.1
2019-11-13T03:09:08,42.805,6.029,0.06,-0.004,-0.008,101.0,103.0,99.0,13.4,1505.2,325.8,-0.7,1.8,2469.97,13.29,0.06,93.8
2019-11-13T03:12:11,42.805,6.029,0.065,-0.016,0.0,100.0,102.0,99.0,13.4,1505.2,325.8,-0.7,1.8,2469.94,13.3,0.066,103.8
2019-11-13T03:15:14,42.805,6.029,0.069,-0.03,-0.059,100.0,103.0,97.0,13.3,1505.3,327.1,-0.7,1.8,2469.998,13.31,0.075,113.5
2019-11-13T03:18:17,42.805,6.029,0.077,-0.005,-0.043,101.0,103.0,98.0,13.4,1505.3,325.1,-0.7,1.8,2469.971,13.31,0.077,93.7
2019-11-13T03:21:20,42.805,6.029,0.053,-0.002,-0.028,99.0,104.0,99.0,13.4,1505.3,324.6,-0.7,1.8,2469.919,13.32,0.053,92.2
2019-11-13T03:24:23,42.805,6.029,0.073,0.014,-0.004,100.0,105.0,98.0,13.3,1505.3,327.2,-0.7,1.8,2469.967,13.32,0.074,79.1
2019-11-13T03:27:26,42.805,6.029,0.047,0.008,-0.036,99.0,103.0,98.0,13.3,1505.3,327.3,-0.7,1.8,2469.982,13.32,0.047,80.3
2019-11-13T03:30:29,42.805,6.029,0.081,-0.018,-0.038,99.0,103.0,98.0,13.3,1505.3,327.2,-0.7,1.8,2469.948,13.32,0.082,102.5
2019-11-13T03:33:32,42.805,6.029,0.048,-0.005,-0.025,98.0,102.0,98.0,13.3,1505.3,326.1,-0.7,1.8,2469.998,13.32,0.048,95.9
2019-11-13T03:36:35,42.805,6.029,0.055,0.021,-0.015,101.0,105.0,99.0,13.3,1505.3,326.6,-0.7,1.8,2470.016,13.32,0.058,69.1
2019-11-13T03:39:38,42.805,6.029,0.015,0.008,-0.069,100.0,105.0,98.0,13.4,1505.3,323.9,-0.7,1.8,2469.984,13.32,0.017,61.9
2019-11-13T03:42:41,42.805,6.029,0.043,0.008,-0.028,100.0,105.0,97.0,13.4,1505.3,325.2,-0.7,1.8,2469.988,13.32,0.043,79.5
2019-11-13T03:45:44,42.805,6.029,0.055,-0.007,-0.033,100.0,103.0,97.0,13.4,1505.3,326.8,-0.7,1.8,2469.979,13.32,0.055,97.3
2019-11-13T03:48:47,42.805,6.029,0.057,0.017,-0.003,101.0,104.0,98.0,13.4,1505.3,326.5,-0.7,1.8,2469.943,13.32,0.059,73.4
2019-11-13T03:51:50,42.805,6.029,0.063,0.025,-0.023,99.0,104.0,98.0,13.4,1505.3,327.2,-0.7,1.9,2469.964,13.32,0.067,68.4
2019-11-13T03:54:53,42.805,6.029,0.061,0.006,-0.028,101.0,103.0,98.0,13.4,1505.3,324.9,-0.7,1.9,2469.96,13.32,0.061,84.4
2019-11-13T03:57:56,42.805,6.029,0.064,-0.006,-0.028,99.0,103.0,98.0,13.4,1505.3,326.4,-0.7,1.8,2470.011,13.32,0.064,95.4
2019-11-13T04:09:08,42.805,6.029,0.086,0.0,0.003,99.0,103.0,98.0,13.4,1505.2,326.8,-0.7,1.8,2470.022,13.29,0.085,90.0
2019-11-13T04:12:11,42.805,6.029,0.04,0.002,-0.028,100.0,104.0,98.0,13.4,1505.3,325.1,-0.7,1.8,2470.028,13.31,0.04,87.1
2019-11-13T04:15:14,42.805,6.029,0.085,0.005,-0.03,99.0,103.0,98.0,13.4,1505.3,328.1,-0.7,1.9,2470.048,13.31,0.085,86.6
2019-11-13T04:18:17,42.805,6.029,0.071,0.0,-0.042,100.0,103.0,98.0,13.3,1505.3,327.4,-0.7,1.8,2470.059,13.32,0.07,90.0
2019-11-13T04:21:20,42.805,6.029,0.029,0.002,-0.058,99.0,105.0,98.0,13.4,1505.3,326.5,-0.8,1.8,2470.054,13.32,0.029,86.1
2019-11-13T04:24:23,42.805,6.029,0.078,0.006,0.01,99.0,104.0,99.0,13.3,1505.3,328.1,-0.7,1.8,2470.045,13.32,0.078,85.6
2019-11-13T04:27:26,42.805,6.029,0.038,0.002,-0.031,100.0,105.0,98.0,13.4,1505.3,324.5,-0.7,1.8,2470.004,13.32,0.038,87.0
2019-11-13T04:30:29,42.805,6.029,0.038,0.0,-0.04,100.0,105.0,98.0,13.3,1505.3,324.3,-0.7,1.8,2469.979,13.32,0.038,90.0
2019-11-13T04:33:32,42.805,6.029,0.076,0.007,-0.028,98.0,105.0,98.0,13.3,1505.3,326.1,-0.7,1.8,2470.039,13.32,0.076,84.7
2019-11-13T04:36:35,42.805,6.029,0.04,-0.005,-0.064,100.0,105.0,99.0,13.3,1505.3,326.2,-0.7,1.8,2470.011,13.32,0.04,97.1
2019-11-13T04:39:38,42.805,6.029,0.071,-0.008,0.01,100.0,105.0,98.0,13.3,1505.3,326.9,-0.7,1.9,2470.017,13.32,0.071,96.4
2019-11-13T04:42:41,42.805,6.029,0.032,0.011,-0.019,99.0,106.0,99.0,13.3,1505.3,326.2,-0.7,1.8,2470.032,13.32,0.033,71.0
2019-11-13T04:45:44,42.805,6.029,0.041,-0.003,-0.08,99.0,106.0,99.0,13.3,1505.3,323.8,-0.7,1.9,2470.017,13.32,0.041,94.2
2019-11-13T04:48:47,42.805,6.029,0.05,0.015,-0.029,100.0,104.0,98.0,13.3,1505.3,325.3,-0.7,1.8,2470.029,13.32,0.052,73.3
2019-11-13T04:51:50,42.805,6.029,0.037,0.007,-0.057,100.0,105.0,99.0,13.4,1505.3,328.1,-0.7,1.8,2470.022,13.32,0.037,79.3
2019-11-13T04:54:53,42.805,6.029,0.072,0.012,-0.019,101.0,104.0,97.0,13.4,1505.3,326.8,-0.7,1.8,2470.039,13.32,0.072,80.5
2019-11-13T04:57:56,42.805,6.029,0.033,-0.002,-0.044,100.0,104.0,98.0,13.4,1505.3,328.3,-0.7,1.8,2470.042,13.32,0.033,93.5
2019-11-13T05:09:08,42.805,6.029,0.025,0.004,-0.083,99.0,105.0,99.0,13.4,1505.2,327.6,-0.8,1.8,2470.121,13.29,0.025,80.9
2019-11-13T06:04:08,42.805,6.029,0.03,0.014,-0.025,100.0,105.0,98.0,13.4,1505.1,327.7,-0.8,1.8,2470.576,13.27,0.033,65.0
2019-11-13T06:07:11,42.805,6.029,0.043,0.015,-0.025,101.0,105.0,98.0,13.4,1505.2,326.9,-0.8,1.9,2470.472,13.29,0.045,70.8
2019-11-13T06:10:14,42.805,6.029,0.052,0.008,-0.002,100.0,103.0,98.0,13.4,1505.2,328.6,-0.7,1.8,2470.486,13.3,0.052,81.3
2019-11-13T06:13:17,42.805,6.029,0.055,0.009,-0.023,100.0,104.0,97.0,13.4,1505.3,325.6,-0.7,1.9,2470.412,13.31,0.055,80.7
2019-11-13T06:16:20,42.805,6.029,0.023,0.016,-0.057,100.0,105.0,98.0,13.4,1505.3,324.7,-0.7,1.8,2470.397,13.32,0.028,55.2
2019-11-13T06:19:23,42.805,6.029,0.074,0.002,-0.011,101.0,104.0,98.0,13.4,1505.3,326.3,-0.7,1.8,2470.362,13.32,0.074,88.5
2019-11-13T06:22:26,42.805,6.029,0.062,0.045,0.007,98.0,104.0,97.0,13.4,1505.3,326.5,-0.8,1.8,2470.337,13.32,0.076,54.0
2019-11-13T07:04:08,42.805,6.029,0.069,0.043,0.034,101.0,106.0,98.0,13.3,1505.1,328.1,-0.8,1.8,2470.579,13.27,0.081,58.1
2019-11-13T07:07:11,42.805,6.029,0.066,0.016,0.002,100.0,104.0,98.0,13.3,1505.2,326.3,-0.7,1.8,2470.523,13.29,0.067,76.4
2019-11-13T07:10:14,42.805,6.029,0.081,0.035,0.001,100.0,104.0,98.0,13.4,1505.2,327.5,-0.7,1.8,2470.46,13.3,0.088,66.6
2019-11-13T07:13:17,42.805,6.029,0.037,0.02,-0.024,100.0,104.0,97.0,13.4,1505.3,323.5,-0.8,1.8,2470.42,13.31,0.042,61.6
2019-11-13T07:16:20,42.805,6.029,-0.019,0.017,-0.05,100.0,107.0,98.0,13.4,1505.3,327.2,-0.7,1.8,2470.442,13.32,0.025,311.8
2019-11-13T07:19:23,42.805,6.029,-0.031,0.024,-0.065,100.0,106.0,98.0,13.4,1505.3,324.3,-0.7,1.9,2470.4,13.32,0.039,307.7
2019-11-13T07:22:26,42.805,6.029,0.012,0.017,-0.048,101.0,104.0,98.0,13.3,1505.3,327.6,-0.7,1.9,2470.352,13.32,0.02,35.2
2019-11-13T07:25:29,42.805,6.029,0.005,0.019,-0.04,100.0,106.0,98.0,13.4,1505.3,324.3,-0.7,1.9,2470.365,13.33,0.019,14.7
2019-11-13T07:28:32,42.805,6.029,0.018,0.027,-0.046,100.0,105.0,98.0,13.4,1505.3,326.9,-0.7,1.8,2470.323,13.33,0.032,33.7
2019-11-13T07:31:35,42.805,6.029,0.006,0.03,-0.03,99.0,107.0,98.0,13.4,1505.3,328.0,-0.7,1.9,2470.281,13.33,0.03,11.3
2019-11-13T07:34:38,42.805,6.029,0.011,0.021,-0.039,99.0,107.0,98.0,13.4,1505.3,325.7,-0.8,1.8,2470.24,13.33,0.023,27.6
2019-11-13T07:37:41,42.805,6.029,0.008,0.007,-0.034,100.0,107.0,99.0,13.4,1505.3,324.1,-0.7,1.8,2470.265,13.33,0.01,48.8
2019-11-13T07:53:49,42.805,6.029,0.013,0.011,-0.038,98.0,105.0,99.0,13.4,1505.2,327.8,-0.8,1.8,2470.327,13.29,0.017,49.8
2019-11-13T07:58:55,42.805,6.029,-0.022,0.005,-0.059,100.0,107.0,98.0,13.3,1505.2,327.2,-0.8,1.8,2470.289,13.29,0.022,282.8
2019-11-13T08:11:02,42.805,6.029,-0.004,0.011,-0.041,100.0,106.0,98.0,13.3,1505.2,328.0,-0.8,1.8,2470.357,13.29,0.011,340.0
2019-11-13T08:21:09,42.805,6.029,-0.03,0.021,-0.05,101.0,106.0,97.0,13.4,1505.2,325.7,-0.7,1.8,2470.36,13.3,0.036,305.0
2019-11-13T08:23:10,42.805,6.029,0.02,0.006,-0.081,100.0,111.0,97.0,13.3,1505.3,326.5,-0.7,1.9,2470.732,13.33,0.02,73.3
2019-11-13T08:25:54,42.805,6.029,-0.03,-0.002,-0.083,99.0,106.0,99.0,13.4,1505.3,326.4,-0.7,1.8,2470.312,13.33,0.03,266.2
2019-11-13T08:31:03,42.805,6.029,-0.006,0.021,-0.028,99.0,107.0,99.0,13.4,1505.3,325.8,-0.8,1.8,2470.267,13.32,0.021,344.1
2019-11-13T08:34:03,42.805,6.029,0.012,0.012,-0.025,100.0,105.0,97.0,13.4,1505.3,324.9,-0.7,1.9,2470.239,13.33,0.016,45.0
2019-11-13T08:37:03,42.805,6.029,-0.002,0.018,-0.027,98.0,108.0,98.0,13.4,1505.4,326.5,-0.7,1.8,2470.238,13.34,0.018,353.7
2019-11-13T08:40:03,42.805,6.029,0.027,0.018,-0.015,99.0,107.0,99.0,13.3,1505.4,326.1,-0.7,1.8,2470.228,13.34,0.032,56.3
2019-11-13T08:43:03,42.805,6.029,0.009,0.022,0.003,99.0,106.0,97.0,13.4,1505.4,327.6,-0.7,1.8,2470.175,13.34,0.023,22.2
2019-11-13T08:46:03,42.805,6.029,-0.001,0.009,-0.06,100.0,105.0,97.0,13.4,1505.4,322.5,-0.7,1.8,2470.202,13.34,0.009,353.7
2019-11-13T08:49:03,42.805,6.029,0.043,0.022,0.015,99.0,107.0,98.0,13.4,1505.4,326.4,-0.7,1.8,2470.207,13.34,0.048,62.9
2019-11-13T08:52:03,42.805,6.029,0.035,0.011,-0.006,100.0,105.0,98.0,13.4,1505.4,326.4,-0.7,1.8,2470.19,13.34,0.036,72.6
2019-11-13T08:55:03,42.805,6.029,-0.011,0.027,-0.03,101.0,106.0,99.0,13.4,1505.4,325.0,-0.7,1.8,2470.181,13.35,0.029,337.8
2019-11-13T09:04:03,42.805,6.029,0.023,0.018,-0.04,100.0,105.0,97.0,13.4,1505.3,323.2,-0.7,1.8,2470.225,13.31,0.029,52.0
2019-11-13T09:07:03,42.805,6.029,0.0,0.008,-0.02,100.0,104.0,98.0,13.3,1505.3,326.5,-0.7,1.8,2470.201,13.32,0.008,0.0
2019-11-13T09:10:03,42.805,6.029,-0.013,0.021,-0.091,100.0,104.0,97.0,13.4,1505.3,327.7,-0.7,1.9,2470.19,13.33,0.024,328.2
2019-11-13T09:13:03,42.805,6.029,0.028,0.005,-0.065,100.0,105.0,98.0,13.3,1505.3,327.7,-0.7,1.9,2470.174,13.33,0.028,79.9
2019-11-13T09:16:03,42.805,6.029,-0.02,0.017,-0.033,101.0,104.0,96.0,13.4,1505.4,323.3,-0.7,1.8,2470.158,13.34,0.026,310.4
2019-11-13T09:19:03,42.805,6.029,0.007,0.027,0.01,98.0,105.0,98.0,13.4,1505.4,324.0,-0.7,1.8,2470.177,13.34,0.027,14.5
2019-11-13T09:22:03,42.805,6.029,-0.009,0.031,-0.049,101.0,104.0,96.0,13.4,1505.4,323.3,-0.7,1.8,2470.136,13.34,0.032,343.8
2019-11-13T09:25:03,42.805,6.029,-0.002,0.0,-0.041,99.0,104.0,97.0,13.4,1505.4,325.6,-0.7,1.8,2470.14,13.34,0.002,270.0
2019-11-13T09:28:03,42.805,6.029,-0.039,0.014,-0.119,98.0,105.0,97.0,13.4,1505.4,326.4,-0.7,1.9,2470.166,13.34,0.041,289.7
2019-11-13T09:31:03,42.805,6.029,-0.013,0.024,-0.035,99.0,105.0,98.0,13.4,1505.4,323.7,-0.7,1.8,2470.161,13.34,0.027,331.6
2019-11-13T09:34:03,42.805,6.029,0.008,0.004,-0.02,100.0,104.0,96.0,13.3,1505.4,323.5,-0.7,1.9,2470.138,13.34,0.008,63.4
2019-11-13T09:37:03,42.805,6.029,0.025,0.014,0.019,99.0,106.0,98.0,13.3,1505.4,327.1,-0.7,1.8,2470.103,13.35,0.028,60.7
2019-11-13T09:40:03,42.805,6.029,0.009,0.029,0.027,100.0,105.0,98.0,13.3,1505.4,327.0,-0.7,1.8,2470.115,13.35,0.03,17.2
2019-11-13T09:43:03,42.805,6.029,0.024,0.017,-0.02,99.0,105.0,97.0,13.4,1505.4,325.7,-0.7,1.9,2470.103,13.35,0.029,54.7
2019-11-13T09:46:03,42.805,6.029,-0.009,0.005,-0.034,98.0,106.0,97.0,13.4,1505.4,323.0,-0.7,1.8,2470.148,13.35,0.01,299.1
2019-11-13T09:49:03,42.805,6.029,-0.009,0.016,-0.033,98.0,106.0,97.0,13.3,1505.4,324.6,-0.7,1.8,2470.142,13.35,0.018,330.6
2019-11-13T09:52:03,42.805,6.029,-0.003,0.035,-0.028,100.0,105.0,97.0,13.4,1505.4,326.1,-0.7,1.8,2470.097,13.35,0.035,355.1
2019-11-13T09:55:03,42.805,6.029,0.015,0.021,-0.012,98.0,105.0,98.0,13.4,1505.4,325.2,-0.7,1.9,2470.111,13.35,0.025,35.5
2019-11-13T09:58:03,42.805,6.029,-0.012,0.022,-0.034,99.0,107.0,98.0,13.3,1505.4,326.8,-0.7,1.8,2470.133,13.35,0.025,331.4
2019-11-13T10:04:03,42.805,6.029,0.004,0.004,-0.035,100.0,106.0,97.0,13.4,1505.3,328.1,-0.7,1.8,2470.165,13.33,0.005,45.0
2019-11-13T10:07:03,42.805,6.029,0.0,0.036,-0.028,100.0,106.0,98.0,13.3,1505.3,326.2,-0.7,1.8,2470.129,13.33,0.036,0.0
2019-11-13T10:10:03,42.805,6.029,-0.004,0.033,0.0,100.0,105.0,98.0,13.4,1505.3,328.0,-0.7,1.8,2470.098,13.33,0.033,353.1
2019-11-13T10:13:03,42.805,6.029,0.041,0.022,0.004,101.0,106.0,97.0,13.3,1505.3,328.0,-0.7,1.8,2470.218,13.33,0.046,61.8
2019-11-13T10:16:03,42.805,6.029,0.0,0.027,0.028,100.0,105.0,98.0,13.3,1505.4,326.9,-0.7,1.8,2470.127,13.34,0.026,0.0
2019-11-13T10:19:03,42.805,6.029,0.008,0.034,-0.013,100.0,106.0,97.0,13.4,1505.4,327.8,-0.7,1.8,2470.101,13.34,0.034,13.2
2019-11-13T10:22:03,42.805,6.029,0.041,0.012,0.0,99.0,105.0,99.0,13.3,1505.4,323.8,-0.7,1.8,2470.092,13.34,0.042,73.7
2019-11-13T10:25:03,42.805,6.029,0.009,0.019,-0.026,100.0,106.0,96.0,13.4,1505.4,325.2,-0.7,1.9,2470.08,13.34,0.021,25.3
2019-11-13T10:28:03,42.805,6.029,0.015,0.04,-0.005,99.0,107.0,97.0,13.4,1505.4,326.5,-0.7,1.8,2470.16,13.34,0.042,20.6
2019-11-13T10:31:03,42.805,6.029,0.009,0.028,-0.043,100.0,105.0,98.0,13.3,1505.4,325.5,-0.7,1.9,2470.078,13.34,0.029,17.8
2019-11-13T10:34:03,42.805,6.029,0.033,0.027,-0.005,99.0,106.0,98.0,13.3,1505.4,325.4,-0.7,1.8,2470.081,13.34,0.042,50.7
2019-11-13T10:37:03,42.805,6.029,0.004,0.04,0.012,97.0,107.0,98.0,13.3,1505.4,326.5,-0.7,1.8,2470.145,13.34,0.04,5.7
2019-11-13T10:40:03,42.805,6.029,0.014,0.032,-0.026,99.0,108.0,97.0,13.4,1505.4,326.5,-0.7,1.8,2470.074,13.34,0.034,23.6
2019-11-13T10:43:03,42.805,6.029,0.003,0.01,-0.032,99.0,108.0,98.0,13.4,1505.4,323.9,-0.7,1.8,2470.076,13.34,0.01,16.7
2019-11-13T10:46:03,42.805,6.029,0.005,0.025,-0.054,99.0,105.0,97.0,13.4,1505.4,327.0,-0.7,1.9,2470.078,13.34,0.025,11.3
2019-11-13T10:49:03,42.805,6.029,0.011,0.006,-0.008,101.0,105.0,98.0,13.3,1505.4,326.1,-0.7,1.8,2470.059,13.34,0.012,61.4
2019-11-13T10:52:03,42.805,6.029,0.002,0.024,-0.082,99.0,106.0,99.0,13.4,1505.4,326.5,-0.7,1.8,2470.113,13.34,0.024,4.8
2019-11-13T10:55:03,42.805,6.029,-0.019,0.025,0.004,100.0,107.0,98.0,13.3,1505.4,327.3,-0.7,1.8,2470.122,13.34,0.031,322.8
2019-11-13T10:58:03,42.805,6.029,0.013,0.007,-0.033,102.0,105.0,97.0,13.4,1505.4,325.7,-0.7,1.9,2470.113,13.34,0.014,61.7
2019-11-13T11:04:03,42.805,6.029,0.011,0.018,0.008,100.0,108.0,98.0,13.4,1505.3,326.5,-0.7,1.8,2470.156,13.32,0.021,31.4
2019-11-13T11:07:03,42.805,6.029,0.001,0.007,-0.042,100.0,106.0,97.0,13.4,1505.3,327.2,-0.7,1.8,2470.103,13.33,0.007,8.1
2019-11-13T11:10:03,42.805,6.029,0.006,0.027,-0.034,101.0,107.0,98.0,13.3,1505.3,327.0,-0.7,1.8,2470.093,13.33,0.027,12.5
2019-11-13T11:13:03,42.805,6.029,0.007,0.045,-0.001,99.0,108.0,99.0,13.3,1505.4,324.9,-0.7,1.8,2470.062,13.34,0.045,8.8
2019-11-13T11:16:03,42.805,6.029,-0.013,0.019,0.004,99.0,109.0,97.0,13.3,1505.4,326.5,-0.7,1.8,2470.113,13.34,0.023,325.6
2019-11-13T11:19:03,42.805,6.029,0.005,0.018,-0.046,99.0,109.0,99.0,13.4,1505.4,323.2,-0.7,1.9,2470.106,13.34,0.018,15.5
2019-11-13T11:25:03,42.805,6.029,0.009,0.001,-0.018,99.0,108.0,98.0,13.4,1505.3,326.8,-0.8,1.8,2470.081,13.32,0.009,83.7
2019-11-13T11:28:03,42.805,6.029,-0.027,0.013,-0.058,99.0,109.0,98.0,13.4,1505.3,325.7,-0.7,1.8,2470.095,13.32,0.029,295.7
2019-11-13T11:31:03,42.805,6.029,0.011,0.027,0.002,101.0,110.0,97.0,13.4,1505.3,327.5,-0.8,1.8,2470.077,13.33,0.029,22.2
2019-11-13T11:34:03,42.805,6.029,-0.032,0.033,-0.047,99.0,110.0,99.0,13.3,1505.3,325.3,-0.7,1.8,2470.097,13.33,0.045,315.9
2019-11-13T11:37:03,42.805,6.029,0.015,0.02,-0.025,99.0,109.0,97.0,13.3,1505.3,325.2,-0.7,1.9,2470.116,13.33,0.025,36.9
2019-11-13T11:40:03,42.805,6.029,0.016,0.023,0.009,98.0,110.0,97.0,13.4,1505.3,325.3,-0.7,1.8,2470.176,13.33,0.028,34.8
2019-11-13T11:43:03,42.805,6.029,0.007,0.017,-0.033,102.0,108.0,100.0,13.4,1505.4,328.5,-0.7,1.8,2470.083,13.34,0.018,22.4
2019-11-13T11:46:03,42.805,6.029,0.018,0.038,-0.001,100.0,109.0,98.0,13.3,1505.4,326.3,-0.7,1.8,2470.084,13.34,0.042,25.3
2019-11-13T11:49:03,42.805,6.029,0.026,0.028,-0.017,100.0,109.0,99.0,13.3,1505.4,326.7,-0.7,1.9,2470.091,13.34,0.038,42.9
2019-11-13T11:52:03,42.805,6.029,0.016,0.024,-0.015,100.0,110.0,98.0,13.4,1505.4,327.0,-0.7,1.9,2470.057,13.34,0.028,33.7
2019-11-13T11:55:03,42.805,6.029,0.031,0.022,-0.02,99.0,108.0,98.0,13.4,1505.4,325.7,-0.7,1.8,2470.085,13.34,0.038,54.6
2019-11-13T11:58:03,42.805,6.029,-0.007,0.028,-0.015,100.0,109.0,98.0,13.4,1505.4,324.0,-0.7,1.8,2470.078,13.34,0.028,346.0
2019-11-13T12:04:03,42.805,6.029,0.0,0.034,-0.054,100.0,108.0,98.0,13.4,1505.3,328.6,-0.7,1.8,2470.069,13.32,0.034,0.0
2019-11-13T12:07:03,42.805,6.029,0.014,0.041,-0.016,101.0,109.0,98.0,13.3,1505.3,325.4,-0.7,1.8,2470.091,13.32,0.043,18.9
2019-11-13T12:10:03,42.805,6.029,-0.021,0.022,-0.033,99.0,110.0,99.0,13.4,1505.3,326.0,-0.7,1.8,2470.11,13.33,0.03,316.3
2019-11-13T12:13:03,42.805,6.029,0.014,0.012,-0.029,99.0,110.0,99.0,13.4,1505.3,323.8,-0.7,1.8,2470.115,13.33,0.018,49.4
2019-11-13T12:16:03,42.805,6.029,0.042,0.023,-0.021,100.0,109.0,98.0,13.4,1505.3,324.7,-0.7,1.8,2470.082,13.33,0.047,61.3
2019-11-13T12:19:03,42.805,6.029,-0.007,0.039,-0.006,98.0,111.0,99.0,13.4,1505.3,324.6,-0.7,1.8,2470.098,13.33,0.039,349.8
2019-11-13T12:22:03,42.805,6.029,0.016,0.019,-0.033,100.0,108.0,98.0,13.4,1505.3,328.1,-0.7,1.8,2470.089,13.33,0.024,40.1
2019-11-13T12:25:03,42.805,6.029,0.002,0.033,-0.028,99.0,110.0,98.0,13.4,1505.3,325.0,-0.7,1.8,2470.082,13.33,0.033,3.5
2019-11-13T12:28:03,42.805,6.029,0.005,0.039,0.013,98.0,110.0,99.0,13.4,1505.3,325.1,-0.7,1.8,2470.076,13.33,0.039,7.3
2019-11-13T12:31:03,42.805,6.029,0.058,0.019,0.003,101.0,110.0,97.0,13.4,1505.3,328.0,-0.7,1.8,2470.016,13.33,0.061,71.9
2019-11-13T12:34:03,42.805,6.029,0.025,0.032,0.0,99.0,110.0,97.0,13.4,1505.3,323.2,-0.7,1.8,2470.035,13.33,0.04,38.0
2019-11-13T12:37:03,42.805,6.029,0.012,0.043,0.011,100.0,110.0,98.0,13.4,1505.3,328.0,-0.7,1.8,2470.068,13.33,0.044,15.6
2019-11-13T12:40:03,42.805,6.029,0.0,0.035,-0.018,100.0,110.0,98.0,13.4,1505.3,326.3,-0.7,1.8,2470.066,13.33,0.035,0.0